Tracking 18850 objects as of 22-Nov-2017
HD Live streaming from Space Station
objects crossing your sky now

FENGYUN 1C DEB

Track FENGYUN 1C DEB now!
10-day predictions


NORAD ID: 29948
Int'l Code: 1999-025JW
Perigee: 821.8 km
Apogee: 945.8 km
Inclination: 98.9 °
Period: 102.5 minutes
Semi major axis: 7254 km
RCS: 0.04 m2 (small)
Launch date: May 10, 1999
Source: People's Republic of China (PRC)
Launch site: Taiyaun Space Center, China (TSC)

Note: This is SATELLITE DEBRIS
aabbcc
Your satellite tracking list
Your tracking list is empty




NASA's NSSDC Master Catalog

Two Line Element Set (TLE):
1 29948U 99025JW  17325.95899487 +.00000179 +00000-0 +13418-3 0  9991
2 29948 098.8890 356.3401 0085453 207.2203 271.6207 14.04965055556447
Source of the keplerian elements: AFSPC